TimeCDT,TemperatureF,Dew PointF,Humidity,Sea Level PressureIn,VisibilityMPH,Wind Direction,Wind SpeedMPH,Gust SpeedMPH,PrecipitationIn,Events,Conditions,WindDirDegrees,DateUTC
12:13 AM,66.2,48.2,52,29.91,10.0,SSE,4.6,-,N/A,,Overcast,150,2014-06-14 05:13:00
12:32 AM,66.2,46.4,49,29.92,10.0,SE,3.5,-,N/A,,Overcast,130,2014-06-14 05:32:00
12:53 AM,64.4,50.0,59,29.93,10.0,Calm,Calm,-,N/A,,Overcast,0,2014-06-14 05:53:00
1:13 AM,64.4,50.0,59,29.91,10.0,ESE,5.8,-,N/A,,Mostly Cloudy,120,2014-06-14 06:13:00
1:32 AM,64.4,48.2,56,29.90,10.0,SE,6.9,-,N/A,,Clear,130,2014-06-14 06:32:00
1:53 AM,64.4,48.2,56,29.90,10.0,SE,8.1,-,N/A,,Clear,130,2014-06-14 06:53:00
2:13 AM,64.4,48.2,56,29.90,10.0,ESE,8.1,-,N/A,Thunderstorm,Clear,120,2014-06-14 07:13:00
2:32 AM,64.4,48.2,56,29.90,10.0,SE,8.1,-,N/A,,Clear,130,2014-06-14 07:32:00
2:53 AM,64.4,48.2,56,29.87,10.0,SE,10.4,-,N/A,,Clear,130,2014-06-14 07:53:00
3:13 AM,66.2,46.4,49,29.88,10.0,SE,8.1,-,N/A,,Clear,140,2014-06-14 08:13:00
3:32 AM,66.2,46.4,49,29.87,10.0,SE,10.4,-,N/A,,Scattered Clouds,140,2014-06-14 08:32:00
3:53 AM,66.2,44.6,46,29.86,10.0,SE,11.5,19.6,N/A,,Mostly Cloudy,140,2014-06-14 08:53:00
4:13 AM,66.2,44.6,46,29.87,10.0,SSE,6.9,-,N/A,,Overcast,150,2014-06-14 09:13:00
4:32 AM,66.2,46.4,49,29.88,10.0,SSE,6.9,-,N/A,,Overcast,150,2014-06-14 09:32:00
4:53 AM,64.4,48.2,56,29.89,10.0,SE,6.9,-,N/A,Rain,Light Rain,140,2014-06-14 09:53:00
5:13 AM,62.6,50.0,63,29.86,10.0,SE,10.4,-,N/A,Rain,Light Rain,140,2014-06-14 10:13:00
5:32 AM,60.8,53.6,77,29.85,10.0,SE,9.2,-,0.02,Rain,Light Rain,140,2014-06-14 10:32:00
5:53 AM,60.8,53.6,77,29.85,10.0,SSE,6.9,-,N/A,Rain,Light Rain,150,2014-06-14 10:53:00
6:13 AM,60.8,51.8,72,29.85,7.0,SSE,5.8,-,N/A,Thunderstorm,Unknown,150,2014-06-14 11:13:00
6:32 AM,60.8,51.8,72,29.86,10.0,SE,6.9,-,N/A,,Light Drizzle,140,2014-06-14 11:32:00
6:53 AM,60.8,51.8,72,29.91,10.0,Calm,Calm,-,N/A,Rain,Light Rain,0,2014-06-14 11:53:00
7:13 AM,59.0,55.4,88,29.92,5.0,Calm,Calm,-,0.03,Rain,Light Rain,0,2014-06-14 12:13:00
7:32 AM,57.2,55.4,94,29.89,10.0,ESE,10.4,16.1,0.09,Rain,Rain,120,2014-06-14 12:32:00
7:53 AM,57.2,55.4,94,29.87,10.0,SE,13.8,18.4,0.05,Rain,Rain,130,2014-06-14 12:53:00
8:12 AM,55.4,55.4,100,29.85,10.0,SE,16.1,21.9,0.22,Rain,Rain,130,2014-06-14 13:12:00
8:33 AM,55.4,55.4,100,29.86,10.0,SE,13.8,21.9,0.38,Rain,Rain,140,2014-06-14 13:33:00
8:53 AM,55.4,55.4,100,29.82,10.0,SE,17.3,27.6,0.01,Rain,Light Rain,130,2014-06-14 13:53:00
9:13 AM,57.2,57.2,100,29.82,10.0,SE,13.8,19.6,0.02,Rain,Light Rain,140,2014-06-14 14:13:00
9:32 AM,57.2,55.4,94,29.80,10.0,SE,13.8,18.4,0.02,,Mostly Cloudy,140,2014-06-14 14:32:00
9:53 AM,59.0,55.4,88,29.83,10.0,South,5.8,-,N/A,,Overcast,170,2014-06-14 14:53:00
10:13 AM,60.8,57.2,88,29.84,10.0,SSE,5.8,-,N/A,,Overcast,150,2014-06-14 15:13:00
10:32 AM,60.8,57.2,88,29.82,10.0,SE,8.1,-,N/A,,Mostly Cloudy,140,2014-06-14 15:32:00
10:53 AM,62.6,57.2,82,29.81,10.0,SE,9.2,-,N/A,,Mostly Cloudy,140,2014-06-14 15:53:00
11:13 AM,62.6,57.2,82,29.79,10.0,SE,10.4,17.3,N/A,,Scattered Clouds,140,2014-06-14 16:13:00
11:32 AM,62.6,57.2,82,29.77,10.0,SE,12.7,17.3,N/A,,Clear,140,2014-06-14 16:32:00
11:53 AM,62.6,57.2,82,29.77,10.0,SE,10.4,-,N/A,,Scattered Clouds,140,2014-06-14 16:53:00
12:13 PM,62.6,57.2,82,29.75,10.0,SE,9.2,-,N/A,,Mostly Cloudy,130,2014-06-14 17:13:00
12:32 PM,62.6,57.2,82,29.76,10.0,SE,8.1,-,N/A,,Scattered Clouds,130,2014-06-14 17:32:00
12:53 PM,62.6,57.2,82,29.77,10.0,SE,4.6,-,N/A,,Scattered Clouds,140,2014-06-14 17:53:00
1:13 PM,64.4,57.2,77,29.75,10.0,SE,8.1,-,N/A,,Scattered Clouds,130,2014-06-14 18:13:00
1:32 PM,64.4,59.0,83,29.75,10.0,SE,10.4,16.1,N/A,,Clear,130,2014-06-14 18:32:00
1:53 PM,64.4,59.0,83,29.75,10.0,SE,8.1,17.3,N/A,,Scattered Clouds,140,2014-06-14 18:53:00
2:13 PM,64.4,59.0,83,29.76,10.0,SE,10.4,17.3,N/A,,Mostly Cloudy,140,2014-06-14 19:13:00
2:32 PM,64.4,57.2,77,29.74,10.0,SE,9.2,18.4,N/A,,Scattered Clouds,140,2014-06-14 19:32:00
2:53 PM,64.4,59.0,83,29.77,10.0,SSE,5.8,-,N/A,,Mostly Cloudy,160,2014-06-14 19:53:00
3:13 PM,64.4,60.8,88,29.75,10.0,SE,10.4,-,N/A,,Mostly Cloudy,140,2014-06-14 20:13:00
3:32 PM,64.4,59.0,83,29.74,10.0,SE,11.5,23.0,N/A,,Mostly Cloudy,140,2014-06-14 20:32:00
3:53 PM,64.4,59.0,83,29.75,10.0,SE,17.3,23.0,N/A,,Mostly Cloudy,140,2014-06-14 20:53:00
4:13 PM,66.2,60.8,83,29.76,10.0,SSE,15.0,24.2,N/A,,Scattered Clouds,150,2014-06-14 21:13:00
4:33 PM,66.2,60.8,83,29.75,10.0,SE,17.3,23.0,N/A,,Mostly Cloudy,140,2014-06-14 21:33:00
4:52 PM,64.4,60.8,88,29.73,10.0,SE,11.5,21.9,N/A,,Overcast,140,2014-06-14 21:52:00
5:13 PM,64.4,60.8,88,29.71,10.0,SE,12.7,18.4,N/A,Rain,Light Rain,130,2014-06-14 22:13:00
5:33 PM,64.4,60.8,88,29.71,10.0,East,8.1,-,N/A,,Light Drizzle,100,2014-06-14 22:33:00
5:52 PM,64.4,60.8,88,29.69,10.0,ESE,10.4,18.4,N/A,,Overcast,120,2014-06-14 22:52:00
6:13 PM,66.2,60.8,83,29.69,10.0,ESE,11.5,-,N/A,,Overcast,120,2014-06-14 23:13:00
6:32 PM,64.4,60.8,88,29.65,10.0,SE,17.3,28.8,N/A,Rain-Thunderstorm,Light Thunderstorms and Rain,140,2014-06-14 23:32:00
6:53 PM,62.6,60.8,94,29.65,5.0,SE,16.1,28.8,0.03,Rain-Thunderstorm,Thunderstorms and Rain,130,2014-06-14 23:53:00
7:13 PM,62.6,60.8,94,29.66,7.0,ESE,21.9,29.9,0.09,Rain-Thunderstorm,Rain,120,2014-06-15 00:13:00
7:32 PM,62.6,60.8,94,29.64,10.0,ESE,27.6,34.5,0.17,Rain-Thunderstorm,Light Thunderstorms and Rain,120,2014-06-15 00:32:00
7:53 PM,62.6,60.8,94,29.65,10.0,ESE,23.0,32.2,N/A,Rain-Thunderstorm,Light Thunderstorms and Rain,120,2014-06-15 00:53:00
8:13 PM,62.6,60.8,94,29.65,10.0,ESE,24.2,29.9,0.03,Rain-Thunderstorm,Heavy Thunderstorms and Rain,120,2014-06-15 01:13:00
8:32 PM,60.8,60.8,100,29.66,10.0,ESE,20.7,27.6,0.06,Rain-Thunderstorm,Thunderstorms and Rain,120,2014-06-15 01:32:00
8:53 PM,60.8,60.8,100,29.69,3.0,NE,5.8,-,0.20,Rain-Thunderstorm,Heavy Thunderstorms and Rain,40,2014-06-15 01:53:00
9:13 PM,60.8,60.8,100,29.71,3.0,NNE,5.8,-,0.39,Rain-Thunderstorm,Heavy Thunderstorms and Rain,30,2014-06-15 02:13:00
9:32 PM,60.8,60.8,100,29.72,10.0,ENE,6.9,-,0.48,Rain-Thunderstorm,Light Thunderstorms and Rain,70,2014-06-15 02:32:00
9:53 PM,60.8,60.8,100,29.72,10.0,ENE,9.2,-,0.03,Rain-Thunderstorm,Thunderstorms and Rain,70,2014-06-15 02:53:00
10:13 PM,59.0,59.0,100,29.72,7.0,ENE,9.2,-,0.09,Rain,Rain,60,2014-06-15 03:13:00
10:32 PM,59.0,59.0,100,29.69,7.0,East,16.1,24.2,0.14,Rain,Rain,90,2014-06-15 03:32:00
10:53 PM,59.0,59.0,100,29.72,10.0,ESE,15.0,24.2,0.01,Rain,Light Rain,110,2014-06-15 03:53:00
11:12 PM,59.0,59.0,100,29.72,10.0,East,10.4,-,0.02,Rain,Rain,90,2014-06-15 04:12:00
11:33 PM,57.2,57.2,100,29.72,10.0,East,9.2,-,0.02,Rain,Light Rain,80,2014-06-15 04:33:00
11:53 PM,59.0,59.0,100,29.68,10.0,East,19.6,26.5,0.01,,Drizzle,100,2014-06-15 04:53:00